Tracking 18945 objects as of 19-Jan-2018
HD Live streaming from Space Station
objects crossing your sky now

H-1 R/B(1)

Track H-1 R/B(1) now!
10-day predictions


NORAD ID: 20230
Int'l Code: 1989-070B
Perigee: 187.5 km
Apogee: 3,698.3 km
Inclination: 28.2 °
Period: 125.7 minutes
Semi major axis: 8313 km
RCS: 2.9914 m2 (large)
Launch date: September 5, 1989
Source: Japan (JPN)
Launch site: TANEGASHIMA SPACE CENTER (TNSTA)

Note: This is a ROCKET BODY
aabbcc
Your satellite tracking list
Your tracking list is empty




NASA's NSSDC Master Catalog

Two Line Element Set (TLE):
1 20230U 89070B   18019.14799203  .00203678 -33613-5  57764-3 0  9995
2 20230  28.2004 278.1766 2111395 217.0512 126.4008 11.45233376534257
Source of the keplerian elements: AFSPC